Flag for Slovakia Weather past 2 weeks in Bratislava, Slovakia

Now
72 °F

Scattered clouds.


Feels Like: 76 °F
Forecast: 55 / 69 °F
Wind: 16 mph from Northwest

Location: Bratislava Ivanka

Current Time: May 6, 2015 at 3:37:38 PM

Latest Report: May 6, 2015 at 3:00 PM


Visibility: N/A

Pressure: 29.86 "Hg

Humidity: 57%

Dew point: 55 °F

Location of BratislavaLocation

Historic Weather in Bratislava — Graph

°F

Bratislava temperature yesterday

Maximum temperature yesterday: 79 °F (at 3:00 PM)
Minimum temperature yesterday: 57 °F (at 4:30 AM)
Average temperature yesterday: 68 °F

Past Weeks' High & Low Weather Summary

 TemperatureHumidityPressure
High79 °F (May 5, 3:00 PM)100% (May 2, 6:30 AM)30.21 "Hg (May 2, 6:30 AM)
Low37 °F (Apr 30, 3:30 AM)20% (Apr 21, 6:00 PM)29.56 "Hg (Apr 28, 3:30 AM)
Average58 °F65%29.91 "Hg
* Reported Apr 21 2:00 PM — May 6 2:30 PM, Bratislava, Weather by CustomWeather, © 2015

Note: Actual official high and low records may vary slightly from our data, if they occured in-between our weather recording intervals... More about our weather records

Advertising

Bratislava weather history for previous 24 hours

 ConditionsComfort  
Time TempWeatherWind HumidityBarometerVisibility
2:30 PM
Wed, May 6
72 °FBroken clouds.16 mph57%29.86 "HgN/A
2:00 PM73 °FScattered clouds.15 mph57%29.86 "HgN/A
1:30 PM73 °FScattered clouds.12 mph57%29.86 "HgN/A
1:00 PM73 °FPassing clouds.14 mph61%29.86 "HgN/A
12:30 PM73 °FScattered clouds.13 mph61%29.86 "HgN/A
12:00 PM73 °FPassing clouds.9 mph57%29.86 "HgN/A
11:30 AM72 °FScattered clouds.12 mph61%29.86 "HgN/A
11:00 AM72 °FPartly sunny.8 mph61%29.86 "HgN/A
10:30 AM72 °FPartly sunny.6 mph61%29.86 "HgN/A
10:00 AM70 °FPartly sunny.8 mph64%29.86 "HgN/A
9:30 AM68 °FScattered clouds.13 mph64%29.86 "HgN/A
9:00 AM68 °FScattered clouds.13 mph69%29.86 "HgN/A
8:30 AM68 °FScattered clouds.10 mph69%29.86 "HgN/A
8:00 AM68 °FPartly sunny.6 mph73%29.86 "HgN/A
7:30 AM66 °FPartly sunny.3 mph78%29.86 "HgN/A
7:00 AM66 °FScattered clouds.12 mph78%29.86 "HgN/A
6:30 AM64 °FPassing clouds.12 mph88%29.83 "HgN/A
6:00 AM64 °FPassing clouds.5 mph83%29.83 "HgN/A
5:00 AM64 °FClear.1 mph83%29.83 "Hg10 mi
4:30 AM64 °FClear.2 mph83%29.80 "Hg10 mi
4:00 AM64 °FClear.9 mph88%29.80 "Hg10 mi
3:30 AM63 °FClear.6 mph88%29.83 "Hg10 mi
3:00 AM63 °FPassing clouds.6 mph88%29.80 "HgN/A
2:30 AM63 °FClear.3 mph88%29.80 "Hg10 mi
2:00 AM64 °FClear.7 mph88%29.80 "Hg10 mi
1:30 AM64 °FClear.8 mph88%29.80 "Hg10 mi
1:00 AM64 °FClear.8 mph88%29.80 "Hg10 mi
12:30 AM64 °FClear.7 mph88%29.80 "Hg10 mi
12:00 AM64 °FClear.7 mph88%29.80 "Hg10 mi
11:30 PM
Tue, May 5
64 °FClear.7 mph88%29.80 "Hg10 mi
11:00 PM66 °FClear.7 mph78%29.80 "Hg10 mi
10:30 PM66 °FClear.6 mph78%29.77 "Hg10 mi
10:00 PM68 °FPassing clouds.6 mph73%29.77 "HgN/A
9:30 PM70 °FClear.7 mph69%29.77 "Hg10 mi
9:00 PM72 °FSunny.6 mph65%29.77 "Hg10 mi
8:30 PM73 °FSunny.9 mph61%29.77 "Hg10 mi
8:00 PM73 °FSunny.9 mph61%29.77 "Hg10 mi
7:30 PM75 °FSunny.8 mph57%29.77 "Hg10 mi
7:00 PM75 °FSunny.8 mph57%29.77 "Hg10 mi
6:30 PM77 °FSunny.8 mph57%29.77 "Hg10 mi
6:00 PM77 °FPassing clouds.10 mph54%29.77 "HgN/A
5:30 PM79 °FPassing clouds.12 mph51%29.77 "HgN/A
5:00 PM79 °FPassing clouds.12 mph51%29.77 "HgN/A
4:30 PM79 °FSunny.13 mph51%29.77 "Hg10 mi
4:00 PM79 °FSunny.12 mph51%29.77 "Hg10 mi
3:30 PM79 °FPassing clouds.10 mph48%29.77 "HgN/A
3:00 PM79 °FPassing clouds.10 mph51%29.80 "HgN/A
Weather by CustomWeather, © 2015

See weather overviewHow to use our weather pages